[[{"header":{"parameterUnit":"m.s-1","parameterCategory":1,"la1":30.2991,"la2":30.254,"lo1":-89.0895,"lo2":-89.0444,"dy":0.0017,"dx":0.0017,"nx":28,"ny":28,"refTime":"2025-11-11T09:00:00:Z","depth":0,"parameterNumber":2,"parameterNumberName":"U-component_of_WINDS"},"data":[0,0,0,0,0,0,0,0,0,0,0,0,0,0,0,0,0,0,0,0,0,0,0,0,0,0,0,0,0,0,0,0,0,0,0,0,0,0,0,0,0,0,0,0,0,0,0,0,0,0,0,0,0,0,0,0,0,0,2.2438,2.2438,0,2.2477,2.2477,2.2478,2.2426,2.2424,2.2422,2.2421,2.2458,2.246,2.2463,0,0,0,0,0,0,0,0,0,0,0,0,0,2.2315,2.2317,2.2438,2.2438,2.2439,2.2477,2.2477,2.2478,2.2426,2.2424,2.2422,2.242,2.2457,2.246,2.2463,0,0,0,0,0,0,0,0,0,0,0,0,0,2.2362,2.2318,2.2438,2.2418,2.2416,2.2477,2.2477,2.2478,2.2427,2.2424,2.2421,2.2419,2.2456,2.246,2.2464,2.2545,0,0,2.2476,2.2478,0,0,0,0,0,0,0,0,2.236,2.2367,2.242,2.2419,2.2418,2.2444,2.2447,2.25,2.2428,2.2423,2.2421,2.2417,2.2455,2.2459,2.2472,2.2546,2.2548,2.2477,2.2479,2.2481,2.2482,0,0,0,0,0,0,0,2.2357,2.2365,2.2453,2.2421,2.2419,2.2406,2.2409,2.2457,2.2454,2.2423,2.2419,2.2425,2.2454,2.2469,2.2473,2.2549,2.2477,2.248,2.2483,2.2484,2.2687,2.269,0,0,0,0,0,0,2.2356,2.2363,2.2452,2.2454,2.2381,2.241,2.2414,2.2438,2.2453,2.2453,2.2427,2.2422,2.2463,2.2468,2.2474,2.2567,2.2481,2.2485,2.2487,2.2684,2.2688,2.2691,0,0,0,0,0,0,2.2354,2.2365,2.245,2.2407,2.2417,2.2415,2.2442,2.244,2.2455,2.2457,2.2455,2.2443,2.2461,2.2468,2.2527,2.2567,2.2487,2.249,2.2681,2.2685,2.269,2.2754,0,0,0,0,0,0,2.235,2.2364,2.2396,2.2409,2.242,2.2504,2.2445,2.2443,2.2462,2.2456,2.2471,2.2471,2.2459,2.2521,2.2531,2.2571,2.2493,2.2677,2.2683,2.2688,2.2749,2.2761,2.2771,0,0,0,0,0,2.2346,2.2412,2.2397,2.2408,2.2459,2.2506,2.2512,2.2499,2.2466,2.2497,2.2497,2.247,2.2562,2.2528,2.2538,2.2581,2.2674,2.2681,2.2688,2.2744,2.2758,2.277,0,0,0,0,0,0,2.2403,2.2414,2.2397,2.247,2.2488,2.2497,2.2536,2.2515,2.2542,2.2535,2.2516,2.252,2.2582,2.2588,2.2549,2.2658,2.2613,2.2622,2.2651,2.2665,2.2676,2.2672,2.2497,0,0,0,0,0,2.2425,2.2463,2.247,2.2533,2.2543,2.2538,2.2558,2.2546,2.2563,2.257,2.2575,2.2592,2.2624,2.2646,2.2676,2.275,2.2751,2.2785,2.2796,2.2805,2.2812,2.2848,2.2862,2.2713,2.2713,2.2713,0,0,2.2468,2.2479,2.2504,2.2545,2.2557,2.2595,2.2544,2.2588,2.2615,2.2576,2.2631,2.2636,2.2653,2.2719,2.2748,2.2726,2.2854,2.2813,2.2821,2.2822,2.2857,2.2871,2.2883,2.2717,2.2717,2.2716,0,0,2.2567,2.258,2.2633,2.2646,2.2666,2.2662,2.2675,2.2688,2.2689,2.2744,2.2715,2.2747,2.2805,2.2817,2.2831,2.2934,2.2908,2.2944,2.3001,2.3037,2.3048,2.3059,2.3092,2.3104,2.2952,2.2952,2.2952,0,2.2618,2.2675,2.2662,2.2707,2.2724,2.2692,2.2744,2.2757,2.2785,2.2797,2.2772,2.2841,2.2851,2.2918,2.2943,2.2957,2.2969,2.2941,2.3048,2.3058,2.3068,2.3099,2.3112,2.2956,2.2956,2.2955,2.2955,0,2.2736,2.2776,2.2816,2.2844,2.2866,2.2915,2.2907,2.2931,2.2918,2.2916,2.2972,2.2982,2.3013,2.3029,2.3016,2.3093,2.3078,2.3051,2.3004,2.3086,2.3115,2.3127,2.2962,2.296,2.2959,2.2958,0,0,2.2869,2.2889,2.2904,2.2915,2.2934,2.2964,2.301,2.304,2.306,2.3081,2.3117,2.3166,2.314,2.3156,2.3145,2.3177,2.3253,2.3145,2.3145,2.3162,2.3336,2.3353,2.3367,2.3239,2.3241,2.3243,2.3333,0,2.2964,2.3044,2.3033,2.3109,2.3144,2.3115,2.3154,2.317,2.317,2.3199,2.3199,2.3232,2.3198,2.3207,2.3238,2.3238,2.3287,2.3232,2.3269,2.327,2.3262,2.3383,2.3402,2.3486,2.3344,2.3346,2.3348,0,2.3086,2.3111,2.319,2.3202,2.3216,2.3252,2.3278,2.3307,2.3323,2.3321,2.3338,2.3321,2.3365,2.3321,2.3379,2.3342,2.3357,2.3359,2.3362,2.3362,2.3311,2.3382,2.3513,2.3525,2.3366,2.3365,2.3364,0,2.317,2.3224,2.3277,2.3289,2.3305,2.333,2.3338,2.3351,2.337,2.3392,2.3403,2.3431,2.3446,2.3467,2.3457,2.3426,2.3516,2.3472,2.3513,2.3513,2.353,2.3528,2.3661,2.3547,2.3547,2.3546,2.3546,0,2.3275,2.3324,2.3315,2.3348,2.3401,2.3388,2.3441,2.3445,2.3457,2.3489,2.3466,2.3496,2.3482,2.3511,2.3504,2.3552,2.3559,2.3557,2.3553,2.3557,2.3556,2.3563,2.3556,2.355,2.3549,2.3548,2.3548,0,2.3377,2.3373,2.3429,2.344,2.3444,2.3482,2.3491,2.352,2.3519,2.3559,2.3568,2.3566,2.3598,2.3591,2.3627,2.3622,2.3681,2.3673,2.3675,2.3672,2.3712,2.3707,2.3851,2.3868,2.3746,2.3747,2.3748,0,2.3442,2.3479,2.3493,2.3513,2.3523,2.3556,2.3574,2.3563,2.3583,2.3603,2.363,2.3661,2.3684,2.3737,2.3738,2.3764,2.3754,2.3803,2.3757,2.3759,2.375,2.3746,2.3748,2.381,2.3812,2.3813,2.3814,0,2.3557,2.3553,2.3581,2.3608,2.3631,2.3652,2.3671,2.3688,2.3678,2.3702,2.3735,2.3753,2.3789,2.3819,2.3844,2.385,2.3829,2.3829,2.3839,2.384,2.3839,2.3836,2.3696,2.3824,2.3823,2.3822,2.3822,2.3821,2.3639,2.3669,2.3684,2.3716,2.3729,2.3746,2.3774,2.3777,2.3804,2.3833,2.3825,2.3862,2.3876,2.3906,2.3916,2.3944,2.3925,2.3941,2.3944,2.3947,2.395,2.3838,2.3949,2.3948,2.3948,2.3948,2.3948,0,2.3749,2.3758,2.3787,2.3813,2.3838,2.3819,2.3838,2.3859,2.3892,2.3907,2.3931,2.3967,2.3996,2.3999,2.4026,2.4047,2.4038,2.4054,2.405,2.4051,2.3967,2.3954,2.4061,2.4061,2.4061,2.4061,2.4061,2.4061,2.3809,2.3858,2.3857,2.3911,2.3919,2.3955,2.3967,2.3983,2.3994,2.4037,2.4061,2.4063,2.4073,2.41,2.4125,2.4125,2.4134,2.4153,2.4149,2.4069,2.4058,2.4047,2.4034,2.4156,2.4156,2.423,2.4231,2.4231]},{"header":{"parameterUnit":"m.s-1","parameterCategory":1,"la1":30.2991,"la2":30.254,"lo1":-89.0895,"lo2":-89.0444,"dy":0.0017,"dx":0.0017,"nx":28,"ny":28,"refTime":"2025-11-11T09:00:00:Z","depth":0,"parameterNumber":3,"parameterNumberName":"V-component_of_WINDS"},"data":[0,0,0,0,0,0,0,0,0,0,0,0,0,0,0,0,0,0,0,0,0,0,0,0,0,0,0,0,0,0,0,0,0,0,0,0,0,0,0,0,0,0,0,0,0,0,0,0,0,0,0,0,0,0,0,0,0,0,1.9296,1.9295,0,1.9237,1.9236,1.9236,1.918,1.9179,1.9178,1.9177,1.9117,1.9116,1.9115,0,0,0,0,0,0,0,0,0,0,0,0,0,1.9355,1.9355,1.9296,1.9295,1.9294,1.9237,1.9236,1.9236,1.918,1.9179,1.9178,1.9177,1.9117,1.9116,1.9115,0,0,0,0,0,0,0,0,0,0,0,0,0,1.9316,1.9354,1.9296,1.9259,1.9256,1.9237,1.9236,1.9235,1.918,1.9179,1.9178,1.9177,1.9117,1.9116,1.9115,1.9128,0,0,1.911,1.911,0,0,0,0,0,0,0,0,1.9319,1.9314,1.9265,1.9262,1.9258,1.9214,1.9235,1.9199,1.918,1.9209,1.9177,1.9176,1.915,1.9146,1.9137,1.9125,1.9122,1.911,1.9109,1.9109,1.9108,0,0,0,0,0,0,0,1.9321,1.9316,1.9272,1.9265,1.926,1.9245,1.9238,1.9228,1.9186,1.9206,1.9202,1.9196,1.9148,1.9139,1.9136,1.9121,1.911,1.9109,1.9108,1.9108,1.9111,1.9112,0,0,0,0,0,0,1.933,1.9319,1.9274,1.9271,1.9286,1.9245,1.9237,1.9229,1.9186,1.9178,1.9197,1.9193,1.9142,1.9137,1.9133,1.9142,1.9109,1.9107,1.9107,1.911,1.9111,1.9112,0,0,0,0,0,0,1.9332,1.9327,1.9277,1.9294,1.9286,1.9245,1.9237,1.9229,1.922,1.9179,1.9171,1.9195,1.9141,1.9135,1.9128,1.9139,1.9107,1.9106,1.9109,1.911,1.9112,1.9162,0,0,0,0,0,0,1.9334,1.9328,1.9333,1.9294,1.9285,1.9274,1.9237,1.9228,1.9218,1.9213,1.9176,1.9169,1.9139,1.9131,1.9127,1.9137,1.9104,1.9108,1.911,1.9111,1.9159,1.9165,1.917,0,0,0,0,0,1.9336,1.935,1.9334,1.9329,1.9292,1.9275,1.927,1.9236,1.9219,1.9223,1.9196,1.917,1.9139,1.9131,1.9126,1.9135,1.9107,1.9109,1.9111,1.9157,1.9164,1.917,0,0,0,0,0,0,1.9392,1.9345,1.9326,1.9328,1.9306,1.9265,1.927,1.9245,1.9228,1.9224,1.9182,1.9174,1.9171,1.9153,1.9144,1.9143,1.9119,1.912,1.9155,1.9162,1.9167,1.9171,1.9103,0,0,0,0,0,1.9405,1.9396,1.9355,1.9361,1.9351,1.9312,1.9304,1.928,1.9255,1.9245,1.9218,1.9194,1.9178,1.9169,1.9153,1.9156,1.9146,1.916,1.9166,1.917,1.9172,1.9168,1.9173,1.9119,1.9119,1.9119,0,0,1.9431,1.9404,1.9401,1.9371,1.9351,1.9341,1.9305,1.9297,1.9288,1.9244,1.9235,1.9214,1.9184,1.9181,1.9179,1.9166,1.9184,1.9173,1.9177,1.9176,1.9171,1.9176,1.918,1.9121,1.912,1.912,0,0,1.9473,1.9453,1.9454,1.9434,1.9404,1.9378,1.9378,1.934,1.9324,1.9315,1.9279,1.9268,1.9244,1.9223,1.9209,1.9239,1.9213,1.9235,1.9263,1.926,1.9264,1.9268,1.9276,1.9279,1.9237,1.9237,1.9237,0,1.951,1.9495,1.9458,1.9451,1.9438,1.9396,1.9395,1.9377,1.9343,1.9334,1.932,1.9285,1.9263,1.9252,1.9259,1.9251,1.9247,1.9239,1.9267,1.927,1.9273,1.928,1.9283,1.924,1.9239,1.9239,1.9239,0,1.9539,1.9529,1.9533,1.95,1.9487,1.9484,1.9445,1.9436,1.9412,1.9387,1.9375,1.9346,1.9321,1.9317,1.9295,1.9303,1.9295,1.9275,1.9249,1.9281,1.9287,1.9289,1.9243,1.9242,1.9242,1.9241,0,0,1.9617,1.9561,1.9563,1.9546,1.9508,1.9498,1.9491,1.9467,1.9458,1.9436,1.9427,1.9405,1.9384,1.9369,1.9343,1.934,1.9362,1.9319,1.9318,1.9326,1.9365,1.938,1.9384,1.9344,1.9345,1.9345,1.9367,0,1.9651,1.9636,1.9602,1.9598,1.9586,1.9544,1.9537,1.9512,1.9487,1.9472,1.9445,1.9429,1.9404,1.9394,1.939,1.936,1.9369,1.9358,1.9334,1.9334,1.9341,1.9387,1.9404,1.9426,1.9369,1.937,1.937,0,1.9689,1.9667,1.9662,1.9621,1.9614,1.9609,1.9582,1.9569,1.9538,1.952,1.9501,1.9471,1.9459,1.9436,1.9417,1.9411,1.9398,1.9382,1.9382,1.9377,1.9353,1.9382,1.9432,1.9435,1.9374,1.9373,1.9373,0,1.9743,1.9712,1.9704,1.9691,1.9644,1.964,1.962,1.9588,1.9575,1.955,1.954,1.9515,1.9501,1.9481,1.9445,1.9432,1.9429,1.9404,1.9411,1.9412,1.9412,1.9413,1.9459,1.9407,1.9407,1.9407,1.9407,0,1.9784,1.9781,1.9727,1.9722,1.9717,1.9676,1.9672,1.9647,1.9619,1.9606,1.9569,1.9558,1.9511,1.9494,1.9466,1.9452,1.9447,1.943,1.9422,1.9433,1.9435,1.9423,1.942,1.9408,1.9408,1.9408,1.9408,0,1.9843,1.9807,1.9794,1.975,1.9738,1.9736,1.9697,1.9689,1.9661,1.9646,1.964,1.9596,1.9574,1.9535,1.9502,1.9482,1.9474,1.9462,1.9484,1.9479,1.9488,1.9487,1.9528,1.953,1.9479,1.948,1.948,0,1.9871,1.9867,1.9822,1.9811,1.9792,1.9775,1.976,1.9719,1.9705,1.9667,1.9663,1.9638,1.9615,1.958,1.9545,1.9518,1.9504,1.952,1.9499,1.9509,1.9501,1.9501,1.9499,1.9524,1.9525,1.9526,1.9526,0,1.9922,1.9904,1.9884,1.9858,1.9841,1.9818,1.9793,1.9785,1.9738,1.9724,1.97,1.9682,1.9647,1.9621,1.9588,1.9566,1.9537,1.9533,1.9532,1.9542,1.9555,1.9545,1.9495,1.9532,1.9531,1.9531,1.9531,1.953,1.9965,1.9959,1.9925,1.9903,1.988,1.9856,1.9846,1.9816,1.9795,1.9763,1.974,1.9717,1.9682,1.9636,1.9615,1.9594,1.9582,1.9583,1.9582,1.9583,1.9585,1.9559,1.9589,1.9589,1.9588,1.9588,1.9588,0,2.0013,1.9988,1.9969,1.9934,1.9916,1.9891,1.9861,1.9847,1.9828,1.9798,1.9776,1.9747,1.972,1.9681,1.9652,1.9643,1.9629,1.9636,1.9636,1.963,1.96,1.9602,1.9648,1.9648,1.9648,1.9648,1.9648,1.9648,2.0035,2.0023,2.0,1.9974,1.9949,1.9926,1.9911,1.9888,1.9864,1.9833,1.9811,1.9785,1.9751,1.9718,1.9691,1.968,1.967,1.9681,1.9666,1.9638,1.9633,1.9627,1.9629,1.968,1.968,1.9698,1.9698,1.9698]}]]